Satellite-Ground Cal/Val Site Overpasses Predictions

Prediction of Satellite NPP Overpassing Cal/Val Site: Antarctic Dome C

Ground Cal/Val Site Location: Latitude: -75.10, Longitude: 123.35; Satellite-Ground Site NADIR distance within 100 km.

Table of predicted overpasses for the next 14.0 days since TLE Epoch: 7/1/2023
Interval Starting Time Ending Time Minimum Distance Time Minimum Distance (km)
1 07/01/2023 07:26:35 07/01/2023 07:27:02 07/01/2023 07:26:48 36.35
2 07/03/2023 15:09:01 07/03/2023 15:09:12 07/03/2023 15:09:06 91.65
3 07/04/2023 14:50:03 07/04/2023 14:50:32 07/04/2023 14:50:17 19.42
4 07/06/2023 07:32:53 07/06/2023 07:33:22 07/06/2023 07:33:07 2.19
5 07/09/2023 14:56:21 07/09/2023 14:56:50 07/09/2023 14:56:36 17.50
6 07/10/2023 14:37:40 07/10/2023 14:37:53 07/10/2023 14:37:47 89.36
7 07/11/2023 07:39:12 07/11/2023 07:39:39 07/11/2023 07:39:26 37.48
8 07/12/2023 07:20:26 07/12/2023 07:20:46 07/12/2023 07:20:36 72.52
